Time,TemperatureF,DewpointF,PressureIn,WindDirection,WindDirectionDegrees,WindSpeedMPH,WindSpeedGustMPH,Humidity,HourlyPrecipIn,Conditions,Clouds,dailyrainin,SolarRadiationWatts/m^2,SoftwareType,DateUTC
2013-05-24 00:01:00,39.0,32.0,-100.00,SSW,208,3.0,8.0,76,0.00,,,0.00,0.000000,,2013-05-24 07:01:00,
2013-05-24 00:11:00,39.0,32.0,-100.00,SSW,208,3.0,8.0,76,0.00,,,0.00,0.000000,,2013-05-24 07:11:00,
2013-05-24 00:32:00,38.0,32.0,-100.00,ESE,110,2.0,6.0,79,0.00,,,0.00,0.000000,,2013-05-24 07:32:00,
2013-05-24 00:42:00,38.0,32.0,-100.00,ESE,110,2.0,6.0,79,0.00,,,0.00,0.000000,,2013-05-24 07:42:00,
2013-05-24 00:52:00,38.0,32.0,-100.00,ESE,110,2.0,6.0,79,0.00,,,0.00,0.000000,,2013-05-24 07:52:00,
2013-05-24 01:02:00,38.0,32.0,-100.00,ESE,110,2.0,6.0,79,0.00,,,0.00,0.000000,,2013-05-24 08:02:00,
2013-05-24 01:11:00,38.0,32.0,-100.00,ESE,110,2.0,6.0,79,0.00,,,0.00,0.000000,,2013-05-24 08:11:00,
2013-05-24 01:33:00,34.0,31.0,-100.00,SE,144,2.0,5.0,88,0.00,,,0.00,0.000000,,2013-05-24 08:33:00,
2013-05-24 01:42:00,34.0,31.0,-100.00,SE,144,2.0,5.0,88,0.00,,,0.00,0.000000,,2013-05-24 08:42:00,
2013-05-24 01:52:00,34.0,31.0,-100.00,SE,144,2.0,5.0,88,0.00,,,0.00,0.000000,,2013-05-24 08:52:00,
2013-05-24 02:01:00,34.0,31.0,-100.00,SE,144,2.0,5.0,88,0.00,,,0.00,0.000000,,2013-05-24 09:01:00,
2013-05-24 02:11:00,34.0,31.0,-100.00,SE,144,2.0,5.0,88,0.00,,,0.00,0.000000,,2013-05-24 09:11:00,
2013-05-24 02:33:00,37.0,30.0,-100.00,SSW,210,3.0,9.0,77,0.00,,,0.00,0.000000,,2013-05-24 09:33:00,
2013-05-24 02:42:00,37.0,30.0,-100.00,SSW,210,3.0,9.0,77,0.00,,,0.00,0.000000,,2013-05-24 09:42:00,
2013-05-24 02:53:00,37.0,30.0,-100.00,SSW,210,3.0,9.0,77,0.00,,,0.00,0.000000,,2013-05-24 09:53:00,
2013-05-24 03:02:00,37.0,30.0,-100.00,SSW,210,3.0,9.0,77,0.00,,,0.00,0.000000,,2013-05-24 10:02:00,
2013-05-24 03:12:00,37.0,30.0,-100.00,SSW,210,3.0,9.0,77,0.00,,,0.00,0.000000,,2013-05-24 10:12:00,
2013-05-24 03:33:00,37.0,31.0,-100.00,South,183,4.0,11.0,78,0.00,,,0.00,0.000000,,2013-05-24 10:33:00,
2013-05-24 03:42:00,37.0,31.0,-100.00,South,183,4.0,11.0,78,0.00,,,0.00,0.000000,,2013-05-24 10:42:00,
2013-05-24 03:52:00,37.0,31.0,-100.00,South,183,4.0,11.0,78,0.00,,,0.00,0.000000,,2013-05-24 10:52:00,
2013-05-24 04:02:00,37.0,31.0,-100.00,South,183,4.0,11.0,78,0.00,,,0.00,0.000000,,2013-05-24 11:02:00,
2013-05-24 04:12:00,37.0,31.0,-100.00,South,183,4.0,11.0,78,0.00,,,0.00,0.000000,,2013-05-24 11:12:00,
2013-05-24 04:32:00,36.0,32.0,-100.00,South,176,3.0,8.0,84,0.00,,,0.00,0.000000,,2013-05-24 11:32:00,
2013-05-24 04:42:00,36.0,32.0,-100.00,South,176,3.0,8.0,84,0.00,,,0.00,0.000000,,2013-05-24 11:42:00,
2013-05-24 04:52:00,36.0,32.0,-100.00,South,176,3.0,8.0,84,0.00,,,0.00,0.000000,,2013-05-24 11:52:00,
2013-05-24 05:01:00,36.0,32.0,-100.00,South,176,3.0,8.0,84,0.00,,,0.00,0.000000,,2013-05-24 12:01:00,
2013-05-24 05:11:00,36.0,32.0,-100.00,South,176,3.0,8.0,84,0.00,,,0.00,0.000000,,2013-05-24 12:11:00,
2013-05-24 05:33:00,35.0,31.0,-100.00,SSE,167,5.0,10.0,86,0.00,,,0.00,0.000000,,2013-05-24 12:33:00,
2013-05-24 05:42:00,35.0,31.0,-100.00,SSE,167,5.0,10.0,86,0.00,,,0.00,0.000000,,2013-05-24 12:42:00,
2013-05-24 05:52:00,35.0,31.0,-100.00,SSE,167,5.0,10.0,86,0.00,,,0.00,0.000000,,2013-05-24 12:52:00,
2013-05-24 06:02:00,35.0,31.0,-100.00,SSE,167,5.0,10.0,86,0.00,,,0.00,0.000000,,2013-05-24 13:02:00,
2013-05-24 06:11:00,35.0,31.0,-100.00,SSE,167,5.0,10.0,86,0.00,,,0.00,0.000000,,2013-05-24 13:11:00,
2013-05-24 06:32:00,37.0,33.0,-100.00,SSW,201,5.0,11.0,86,0.00,,,0.00,20.000000,,2013-05-24 13:32:00,
2013-05-24 06:42:00,37.0,33.0,-100.00,SSW,201,5.0,11.0,86,0.00,,,0.00,20.000000,,2013-05-24 13:42:00,
2013-05-24 06:52:00,37.0,33.0,-100.00,SSW,201,5.0,11.0,86,0.00,,,0.00,20.000000,,2013-05-24 13:52:00,
2013-05-24 07:01:00,37.0,33.0,-100.00,SSW,201,5.0,11.0,86,0.00,,,0.00,20.000000,,2013-05-24 14:01:00,
2013-05-24 07:11:00,37.0,33.0,-100.00,SSW,201,5.0,11.0,86,0.00,,,0.00,20.000000,,2013-05-24 14:11:00,
2013-05-24 07:32:00,39.0,33.0,-100.00,South,174,5.0,10.0,78,0.00,,,0.00,105.000000,,2013-05-24 14:32:00,
2013-05-24 07:42:00,39.0,33.0,-100.00,South,174,5.0,10.0,78,0.00,,,0.00,105.000000,,2013-05-24 14:42:00,
2013-05-24 07:52:00,39.0,33.0,-100.00,South,174,5.0,10.0,78,0.00,,,0.00,105.000000,,2013-05-24 14:52:00,
2013-05-24 08:02:00,39.0,33.0,-100.00,South,174,5.0,10.0,78,0.00,,,0.00,105.000000,,2013-05-24 15:02:00,
2013-05-24 08:11:00,39.0,33.0,-100.00,South,174,5.0,10.0,78,0.00,,,0.00,105.000000,,2013-05-24 15:11:00,
2013-05-24 08:33:00,42.0,33.0,-100.00,South,180,4.0,10.0,71,0.00,,,0.00,189.000000,,2013-05-24 15:33:00,
2013-05-24 08:43:00,42.0,33.0,-100.00,South,180,4.0,10.0,71,0.00,,,0.00,189.000000,,2013-05-24 15:43:00,
2013-05-24 08:52:00,42.0,33.0,-100.00,South,180,4.0,10.0,71,0.00,,,0.00,189.000000,,2013-05-24 15:52:00,
2013-05-24 09:03:00,42.0,33.0,-100.00,South,180,4.0,10.0,71,0.00,,,0.00,189.000000,,2013-05-24 16:03:00,
2013-05-24 09:12:00,42.0,33.0,-100.00,South,180,4.0,10.0,71,0.00,,,0.00,189.000000,,2013-05-24 16:12:00,
2013-05-24 09:33:00,48.0,28.0,-100.00,West,280,7.0,16.0,46,0.00,,,0.00,285.000000,,2013-05-24 16:33:00,
2013-05-24 09:42:00,48.0,28.0,-100.00,West,280,7.0,16.0,46,0.00,,,0.00,285.000000,,2013-05-24 16:42:00,
2013-05-24 09:52:00,48.0,28.0,-100.00,West,280,7.0,16.0,46,0.00,,,0.00,285.000000,,2013-05-24 16:52:00,
2013-05-24 10:01:00,48.0,28.0,-100.00,West,280,7.0,16.0,46,0.00,,,0.00,285.000000,,2013-05-24 17:01:00,
2013-05-24 10:12:00,48.0,28.0,-100.00,West,280,7.0,16.0,46,0.00,,,0.00,285.000000,,2013-05-24 17:12:00,
2013-05-24 10:32:00,49.0,24.0,-100.00,WSW,258,6.0,14.0,37,0.00,,,0.00,393.000000,,2013-05-24 17:32:00,
2013-05-24 10:42:00,49.0,24.0,-100.00,WSW,258,6.0,14.0,37,0.00,,,0.00,393.000000,,2013-05-24 17:42:00,
2013-05-24 10:52:00,49.0,24.0,-100.00,WSW,258,6.0,14.0,37,0.00,,,0.00,393.000000,,2013-05-24 17:52:00,
2013-05-24 11:01:00,49.0,24.0,-100.00,WSW,258,6.0,14.0,37,0.00,,,0.00,393.000000,,2013-05-24 18:01:00,
2013-05-24 11:11:00,49.0,24.0,-100.00,WSW,258,6.0,14.0,37,0.00,,,0.00,393.000000,,2013-05-24 18:11:00,
2013-05-24 11:32:00,53.0,27.0,-100.00,WSW,251,8.0,19.0,37,0.00,,,0.00,437.000000,,2013-05-24 18:32:00,
2013-05-24 11:42:00,53.0,27.0,-100.00,WSW,251,8.0,19.0,37,0.00,,,0.00,437.000000,,2013-05-24 18:42:00,
2013-05-24 11:52:00,53.0,27.0,-100.00,WSW,251,8.0,19.0,37,0.00,,,0.00,437.000000,,2013-05-24 18:52:00,
2013-05-24 12:01:00,53.0,27.0,-100.00,WSW,251,8.0,19.0,37,0.00,,,0.00,437.000000,,2013-05-24 19:01:00,
2013-05-24 12:11:00,53.0,27.0,-100.00,WSW,251,8.0,19.0,37,0.00,,,0.00,437.000000,,2013-05-24 19:11:00,
2013-05-24 12:32:00,56.0,30.0,-100.00,West,261,7.0,19.0,37,0.00,,,0.00,403.000000,,2013-05-24 19:32:00,
2013-05-24 12:42:00,56.0,30.0,-100.00,West,261,7.0,19.0,37,0.00,,,0.00,403.000000,,2013-05-24 19:42:00,
2013-05-24 12:52:00,56.0,30.0,-100.00,West,261,7.0,19.0,37,0.00,,,0.00,403.000000,,2013-05-24 19:52:00,
2013-05-24 13:02:00,56.0,30.0,-100.00,West,261,7.0,19.0,37,0.00,,,0.00,403.000000,,2013-05-24 20:02:00,
2013-05-24 13:11:00,56.0,30.0,-100.00,West,261,7.0,19.0,37,0.00,,,0.00,403.000000,,2013-05-24 20:11:00,
2013-05-24 13:32:00,51.0,29.0,-100.00,NNE,15,6.0,13.0,43,0.00,,,0.00,454.000000,,2013-05-24 20:32:00,
2013-05-24 13:42:00,51.0,29.0,-100.00,NNE,15,6.0,13.0,43,0.00,,,0.00,454.000000,,2013-05-24 20:42:00,
2013-05-24 13:52:00,51.0,29.0,-100.00,NNE,15,6.0,13.0,43,0.00,,,0.00,454.000000,,2013-05-24 20:52:00,
2013-05-24 14:01:00,51.0,29.0,-100.00,NNE,15,6.0,13.0,43,0.00,,,0.00,454.000000,,2013-05-24 21:01:00,
2013-05-24 14:11:00,51.0,29.0,-100.00,NNE,15,6.0,13.0,43,0.00,,,0.00,454.000000,,2013-05-24 21:11:00,
2013-05-24 14:33:00,52.0,28.0,-100.00,NNW,345,7.0,12.0,39,0.00,,,0.00,326.000000,,2013-05-24 21:33:00,
2013-05-24 14:43:00,52.0,28.0,-100.00,NNW,345,7.0,12.0,39,0.00,,,0.00,326.000000,,2013-05-24 21:43:00,
2013-05-24 14:53:00,52.0,28.0,-100.00,NNW,345,7.0,12.0,39,0.00,,,0.00,326.000000,,2013-05-24 21:53:00,
2013-05-24 15:02:00,52.0,28.0,-100.00,NNW,345,7.0,12.0,39,0.00,,,0.00,326.000000,,2013-05-24 22:02:00,
2013-05-24 15:12:00,52.0,28.0,-100.00,NNW,345,7.0,12.0,39,0.00,,,0.00,326.000000,,2013-05-24 22:12:00,
2013-05-24 15:33:00,56.0,29.0,-100.00,NNW,346,6.0,13.0,36,0.00,,,0.00,727.000000,,2013-05-24 22:33:00,
2013-05-24 15:42:00,56.0,29.0,-100.00,NNW,346,6.0,13.0,36,0.00,,,0.00,727.000000,,2013-05-24 22:42:00,
2013-05-24 15:52:00,56.0,29.0,-100.00,NNW,346,6.0,13.0,36,0.00,,,0.00,727.000000,,2013-05-24 22:52:00,
2013-05-24 16:02:00,56.0,29.0,-100.00,NNW,346,6.0,13.0,36,0.00,,,0.00,727.000000,,2013-05-24 23:02:00,
2013-05-24 16:11:00,56.0,29.0,-100.00,NNW,346,6.0,13.0,36,0.00,,,0.00,727.000000,,2013-05-24 23:11:00,
2013-05-24 16:32:00,55.0,31.0,-100.00,North,6,7.0,10.0,39,0.00,,,0.00,599.000000,,2013-05-24 23:32:00,
2013-05-24 16:42:00,55.0,31.0,-100.00,North,6,7.0,10.0,39,0.00,,,0.00,599.000000,,2013-05-24 23:42:00,
2013-05-24 16:52:00,55.0,31.0,-100.00,North,6,7.0,10.0,39,0.00,,,0.00,599.000000,,2013-05-24 23:52:00,
2013-05-24 17:01:00,55.0,31.0,-100.00,North,6,7.0,10.0,39,0.00,,,0.00,599.000000,,2013-05-25 00:01:00,
2013-05-24 17:11:00,55.0,31.0,-100.00,North,6,7.0,10.0,39,0.00,,,0.00,599.000000,,2013-05-25 00:11:00,
2013-05-24 17:32:00,54.0,30.0,-100.00,NW,315,6.0,12.0,40,0.00,,,0.00,417.000000,,2013-05-25 00:32:00,
2013-05-24 17:42:00,54.0,30.0,-100.00,NW,315,6.0,12.0,40,0.00,,,0.00,417.000000,,2013-05-25 00:42:00,
2013-05-24 17:52:00,54.0,30.0,-100.00,NW,315,6.0,12.0,40,0.00,,,0.00,417.000000,,2013-05-25 00:52:00,
2013-05-24 18:01:00,54.0,30.0,-100.00,NW,315,6.0,12.0,40,0.00,,,0.00,417.000000,,2013-05-25 01:01:00,
2013-05-24 18:11:00,54.0,30.0,-100.00,NW,315,6.0,12.0,40,0.00,,,0.00,417.000000,,2013-05-25 01:11:00,
2013-05-24 18:32:00,51.0,30.0,-100.00,NNW,336,6.0,12.0,45,0.00,,,0.00,323.000000,,2013-05-25 01:32:00,
2013-05-24 18:42:00,51.0,30.0,-100.00,NNW,336,6.0,12.0,45,0.00,,,0.00,323.000000,,2013-05-25 01:42:00,
2013-05-24 18:52:00,51.0,30.0,-100.00,NNW,336,6.0,12.0,45,0.00,,,0.00,323.000000,,2013-05-25 01:52:00,
2013-05-24 19:01:00,51.0,30.0,-100.00,NNW,336,6.0,12.0,45,0.00,,,0.00,323.000000,,2013-05-25 02:01:00,
2013-05-24 19:11:00,51.0,30.0,-100.00,NNW,336,6.0,12.0,45,0.00,,,0.00,323.000000,,2013-05-25 02:11:00,
2013-05-24 19:32:00,49.0,30.0,-100.00,South,188,2.0,8.0,48,0.00,,,0.00,112.000000,,2013-05-25 02:32:00,
2013-05-24 19:42:00,49.0,30.0,-100.00,South,188,2.0,8.0,48,0.00,,,0.00,112.000000,,2013-05-25 02:42:00,
2013-05-24 19:52:00,49.0,30.0,-100.00,South,188,2.0,8.0,48,0.00,,,0.00,112.000000,,2013-05-25 02:52:00,
2013-05-24 20:01:00,49.0,30.0,-100.00,South,188,2.0,8.0,48,0.00,,,0.00,112.000000,,2013-05-25 03:01:00,
2013-05-24 20:11:00,49.0,30.0,-100.00,South,188,2.0,8.0,48,0.00,,,0.00,112.000000,,2013-05-25 03:11:00,
2013-05-24 20:33:00,48.0,33.0,-100.00,North,0,3.0,8.0,56,0.00,,,0.00,105.000000,,2013-05-25 03:33:00,
2013-05-24 20:43:00,48.0,33.0,-100.00,North,0,3.0,8.0,56,0.00,,,0.00,105.000000,,2013-05-25 03:43:00,
2013-05-24 20:53:00,48.0,33.0,-100.00,North,0,3.0,8.0,56,0.00,,,0.00,105.000000,,2013-05-25 03:53:00,
2013-05-24 21:02:00,48.0,33.0,-100.00,North,0,3.0,8.0,56,0.00,,,0.00,105.000000,,2013-05-25 04:02:00,
2013-05-24 21:12:00,48.0,33.0,-100.00,North,0,3.0,8.0,56,0.00,,,0.00,105.000000,,2013-05-25 04:12:00,
2013-05-24 21:33:00,41.0,33.0,-100.00,North,10,2.0,7.0,74,0.00,,,0.00,11.000000,,2013-05-25 04:33:00,
2013-05-24 21:43:00,41.0,33.0,-100.00,North,10,2.0,7.0,74,0.00,,,0.00,11.000000,,2013-05-25 04:43:00,
2013-05-24 21:52:00,41.0,33.0,-100.00,North,10,2.0,7.0,74,0.00,,,0.00,11.000000,,2013-05-25 04:52:00,
2013-05-24 22:02:00,41.0,33.0,-100.00,North,10,2.0,7.0,74,0.00,,,0.00,11.000000,,2013-05-25 05:02:00,
2013-05-24 22:11:00,41.0,33.0,-100.00,North,10,2.0,7.0,74,0.00,,,0.00,11.000000,,2013-05-25 05:11:00,
2013-05-24 22:32:00,36.0,32.0,-100.00,SW,216,1.0,3.0,86,0.00,,,0.00,0.000000,,2013-05-25 05:32:00,
2013-05-24 22:43:00,36.0,32.0,-100.00,SW,216,1.0,3.0,86,0.00,,,0.00,0.000000,,2013-05-25 05:43:00,
2013-05-24 22:52:00,36.0,32.0,-100.00,SW,216,1.0,3.0,86,0.00,,,0.00,0.000000,,2013-05-25 05:52:00,
2013-05-24 23:01:00,36.0,32.0,-100.00,SW,216,1.0,3.0,86,0.00,,,0.00,0.000000,,2013-05-25 06:01:00,
2013-05-24 23:11:00,36.0,32.0,-100.00,SW,216,1.0,3.0,86,0.00,,,0.00,0.000000,,2013-05-25 06:11:00,
2013-05-24 23:32:00,32.0,29.0,-100.00,SW,233,3.0,5.0,89,0.00,,,0.00,0.000000,,2013-05-25 06:32:00,